Location: Unspecified
(48.8656°N, 0.0000°E)
Time: 17:36:21
(UTC+00:00)

A-11 Canister half - All Passes

Search period start: 25 June 2019 00:00
Search period end: 05 July 2019 00:00
Orbit: 1526 x 1683 km, 47.3° (Epoch: 24 June)

Date Brightness Start Highest point End Pass type
(mag) Time Alt. Az. Time Alt. Az. Time Alt. Az.
25 Jun - 01:45:56 10° SSE 01:51:55 19° SE 01:57:50 10° E visible
25 Jun - 03:46:13 10° SW 03:55:14 51° SSE 04:04:06 10° ENE daylight
25 Jun - 05:50:18 10° WSW 05:59:42 80° S 06:09:01 10° E daylight
25 Jun - 07:55:16 10° W 08:04:34 73° SSW 08:13:50 10° ESE daylight
25 Jun - 10:00:21 10° WNW 10:08:40 39° SW 10:17:03 10° SSE daylight
25 Jun - 12:09:42 10° WSW 12:11:29 11° WSW 12:13:16 10° SW daylight
26 Jun - 01:24:41 10° SSE 01:30:24 18° SE 01:36:02 10° E visible
26 Jun - 03:24:39 10° SW 03:33:40 49° SSE 03:42:29 10° ENE daylight
26 Jun - 05:28:40 10° WSW 05:38:06 80° S 05:47:24 10° E daylight
26 Jun - 07:33:39 10° W 07:42:57 74° SSW 07:52:14 10° ESE daylight
26 Jun - 09:38:42 10° WNW 09:47:06 40° SW 09:55:34 10° SSE daylight
26 Jun - 11:47:13 10° WSW 11:49:58 12° WSW 11:52:46 10° SW daylight
27 Jun - 01:03:29 10° SSE 01:08:53 17° SE 01:14:13 10° E visible
27 Jun - 03:03:07 10° SW 03:12:05 48° SSE 03:20:52 10° ENE visible
27 Jun - 05:07:02 10° WSW 05:16:30 79° S 05:25:48 10° E daylight
27 Jun - 07:12:01 10° W 07:21:21 76° SSW 07:30:38 10° ESE daylight
27 Jun - 09:17:03 10° WNW 09:25:34 42° SW 09:34:05 10° SSE daylight
27 Jun - 11:25:00 10° WSW 11:28:29 13° SW 11:31:58 10° SSW daylight
28 Jun - 00:42:19 10° SSE 00:47:22 16° SE 00:52:20 10° E visible
28 Jun - 02:41:35 10° SW 02:50:31 46° SE 02:59:14 10° ENE visible
28 Jun - 04:45:24 10° WSW 04:54:52 78° SSE 05:04:10 10° E daylight
28 Jun - 06:50:23 10° W 06:59:45 77° SSW 07:09:01 10° ESE daylight
28 Jun - 08:55:26 10° WNW 09:04:00 43° SW 09:12:35 10° SSE daylight
28 Jun - 11:02:57 10° W 11:06:58 14° SW 11:11:01 10° SSW daylight
29 Jun - 00:21:12 10° SSE 00:25:51 15° SE 00:30:26 10° E visible
29 Jun - 02:20:03 10° SSW 02:28:56 44° SE 02:37:37 10° ENE visible
29 Jun - 04:23:47 10° WSW 04:33:16 77° SSE 04:42:34 10° E daylight
29 Jun - 06:28:45 10° W 06:38:08 78° SSW 06:47:25 10° ESE daylight
29 Jun - 08:33:47 10° WNW 08:42:26 45° SW 08:51:05 10° SSE daylight
29 Jun - 10:40:58 10° W 10:45:28 15° SW 10:49:59 10° SSW daylight
30 Jun - 00:00:09 10° SSE 00:04:20 14° SE 00:08:28 10° E visible
30 Jun - 01:58:31 10° SSW 02:07:22 43° SE 02:16:00 10° ENE visible
30 Jun - 04:02:09 10° WSW 04:11:39 76° SSE 04:20:58 10° E daylight
30 Jun - 06:07:07 10° W 06:16:31 78° SSW 06:25:49 10° ESE daylight
30 Jun - 08:12:09 10° WNW 08:20:52 46° SW 08:29:34 10° SE daylight
30 Jun - 10:19:03 10° W 10:23:58 16° SW 10:28:54 10° SSW daylight
30 Jun - 23:39:10 10° SSE 23:42:49 13° SE 23:46:25 10° E visible
01 Jul - 01:37:01 10° SSW 01:45:48 41° SE 01:54:22 10° ENE visible
01 Jul - 03:40:31 10° WSW 03:50:02 75° SSE 03:59:20 10° E daylight
01 Jul - 05:45:29 10° W 05:54:55 79° S 06:04:12 10° ESE daylight
01 Jul - 07:50:31 10° WNW 07:59:18 48° SSW 08:08:04 10° SE daylight
01 Jul - 09:57:11 10° W 10:02:27 17° SW 10:07:44 10° SSW daylight
01 Jul - 23:18:20 10° SE 23:21:18 12° ESE 23:24:14 10° ESE visible
02 Jul - 01:15:30 10° SSW 01:24:13 40° SE 01:32:43 10° ENE visible
02 Jul - 03:18:53 10° WSW 03:28:26 74° SSE 03:37:44 10° E visible
02 Jul - 05:23:51 10° W 05:33:18 80° S 05:42:36 10° ESE daylight
02 Jul - 07:28:52 10° WNW 07:37:44 50° SSW 07:46:33 10° SE daylight
02 Jul - 09:35:21 10° W 09:40:56 18° SW 09:46:33 10° SSW daylight
02 Jul - 22:57:46 10° SE 22:59:48 11° ESE 23:01:48 10° ESE visible
03 Jul - 00:54:00 10° SSW 01:02:40 38° SE 01:11:06 10° ENE visible
03 Jul - 02:57:16 10° WSW 03:06:49 73° SSE 03:16:08 10° E visible
03 Jul - 05:02:12 10° W 05:11:42 81° S 05:21:00 10° ESE daylight
03 Jul - 07:07:14 10° WNW 07:16:10 51° SSW 07:25:01 10° SE daylight
03 Jul - 09:13:32 10° W 09:19:26 19° SW 09:25:20 10° S daylight
04 Jul - 00:32:31 10° SSW 00:41:06 37° SE 00:49:27 10° ENE visible
04 Jul - 02:35:39 10° WSW 02:45:12 72° SSE 02:54:31 10° E visible
04 Jul - 04:40:34 10° W 04:50:05 81° S 04:59:24 10° ESE daylight
04 Jul - 06:45:36 10° WNW 06:54:36 53° SSW 07:03:30 10° SE daylight
04 Jul - 08:51:45 10° W 08:57:54 20° SW 09:04:05 10° S daylight
